FENGYUN 1C DEB

Satellite information

Favourite Embed

Satellite Type and Status

DEBRISIN ORBIT

Key statistics

Satellite FENGYUN 1C DEB at a glance.

Uptime

9615

Days in orbit

Revolutions

≈ 14.3

Per day

Orbit

SSO

Sun Synchronous Orbit

Inclination

98.9

Latest

Satellite identification and parameters

Extended collection of information and parameters for FENGYUN 1C DEB.

Object identification

Identified? True

Debris? True

Object name: FENGYUN 1C DEB

International designator: 1999-025AZW

Object number (NORAD): 30932

Object ID (CCSDS): 30932

Country: PEOPLES REPUBLIC OF CHINA (PRC)

Current information (Y/N): Y

RCS size: SMALL

Orbital parameters

Period: 101.047 minutes

Inclination: 98.9016 deg

SMA: 7186.365 km

Apoapsis: 848.516 km

Periapsis: 767.944 km

RAAN: 176.5391 deg

Eccentricy: 0.00560589

Argument of periapsis: 224.5923 deg

Mean anomaly: 135.0739 deg

Mean motion: 14.25078629 rev/day

Mean motion (dot): 0.00010143 rev/day2

B* drag term: 0.0042700151 1/REarth

Two-line elements (TLE)

Creation date: Sept. 2, 2025, 10:20 a.m.

Reference frame: TEME

Reference center: EARTH

Epoch: Sept. 2, 2025, 6:06 a.m. UTC

TLE line 0: 0 FENGYUN 1C DEB

TLE line 1: 1 30932U 99025AZW 25245.25439873 .00010143 00000-0 42700-2 0 9995

TLE line 2: 2 30932 98.9016 176.5391 0056059 224.5923 135.0739 14.25078629949482

Live tracking on map

Real-time ground track for satellite FENGYUN 1C DEB.

In-orbit conjunctions

A list of the most updated potential collisions computed for object FENGYUN 1C DEB.

Target Orbit TCA Probability of collision Miss distance Type
COSMOS 2251 DEB LEO 2024-09-28 01:31:02 0.0001469368 277.0 (m) DEBRIS
COSMOS 1375 DEB LEO 2024-09-26 15:52:30 0.0004379409 973.0 (m) DEBRIS
CZ-6A DEB SSO 2024-09-26 15:05:48 0.0002056786 878.0 (m) DEBRIS

Associated space launch

Chinese polar orbiting meteorological satellite

FENGYUN 1C DEB was lifted into orbit during the mission ‘Long March 4B | Feng Yun 1C’, on board a Long March 4B space rocket.

The launch took place on May 10, 1999, 1:33 a.m. from Launch Complex 7.

For more information about the launch, click the button.

Launch to space Long March 4B | Feng Yun 1C
Long March 4B | Feng Yun 1C

Agency: N/A

Status: Launch Successful

Launch date: May 10, 1999, 1:33 a.m. UTC

Rocket: Long March 4B

Launch pad: Launch Complex 7

Location: Taiyuan Satellite Launch Center, People's Republic of China

...

Latest news about this satellite

There are no fresh news available about this satellite. Check back as we update our databases every day.


Newsletter sign-up

Weekly statistics, charts and insights to help you stay on top of the space industry.